FW7418 Weather Reports


time (UTC)temp
F
wind
direction
speed
knots
gust
knots
rain 1hr
in
rain 24hr
in
rain mn
in
humidity
%
barometer
mb
20260507032716 47 322 0.0 0.0 0.00 0.47 0.47 91 1018.4
20260507032212 47 322 0.0 0.0 0.00 0.47 0.47 90 1018.4
20260507031709 47 322 0.0 0.0 0.00 0.47 0.47 90 1018.4
20260507031205 47 322 0.0 0.0 0.00 0.47 0.47 90 1018.6
20260507030702 47 322 0.0 0.0 0.00 0.47 0.47 90 1018.4
20260507030200 47 322 0.0 0.0 0.00 0.47 0.47 89 1018.6
20260507025657 47 322 0.0 0.0 0.00 0.47 0.47 89 1018.6
20260507025154 47 322 0.0 0.0 0.00 0.47 0.47 89 1018.7
20260507024652 47 322 0.0 0.0 0.00 0.47 0.47 88 1018.4
20260507024149 47 322 0.0 0.0 0.00 0.47 0.47 88 1018.5
20260507023644 47 319 0.0 0.0 0.00 0.47 0.47 88 1018.6
20260507023142 47 319 0.0 0.0 0.00 0.47 0.47 88 1018.6
20260507022639 47 319 0.0 0.0 0.00 0.47 0.47 88 1018.8
20260507022134 48 319 0.0 0.0 0.00 0.47 0.47 88 1018.5
20260507021631 48 319 0.0 0.0 0.00 0.47 0.47 88 1018.4
20260507021126 48 319 0.0 0.0 0.00 0.47 0.47 87 1018.2
20260507020625 49 319 0.0 0.0 0.00 0.47 0.47 86 1018.1
20260507020121 49 319 0.0 0.0 0.00 0.47 0.47 85 1018.2
20260507015619 49 319 0.0 0.0 0.00 0.47 0.47 85 1018.3
20260507015116 49 319 0.0 0.0 0.00 0.47 0.47 85 1018.3
20260507014613 49 319 0.0 0.0 0.00 0.47 0.47 85 1018.0
20260507014109 50 319 0.0 0.0 0.00 0.47 0.47 84 1018.0
20260507013606 50 319 0.0 0.0 0.00 0.47 0.47 83 1018.2
20260507013103 50 319 0.0 0.0 0.00 0.47 0.47 83 1018.1
20260507012600 51 319 0.0 0.0 0.00 0.47 0.47 83 1018.1
20260507012055 51 319 0.0 0.0 0.00 0.47 0.47 82 1017.9
20260507011554 51 319 0.0 0.0 0.00 0.47 0.47 82 1017.9
20260507011050 51 319 0.0 0.0 0.00 0.47 0.47 80 1017.9
20260507010544 51 319 0.0 0.0 0.00 0.47 0.47 83 1018.0
20260507010041 51 319 0.0 0.0 0.00 0.47 0.47 81 1018.3
20260507005538 51 319 0.0 0.0 0.00 0.47 0.47 81 1018.0
20260507005034 51 318 0.0 0.0 0.00 0.47 0.47 82 1018.1
20260507004532 51 318 0.0 0.0 0.00 0.47 0.47 81 1017.9
20260507004029 52 318 0.0 0.0 0.00 0.47 0.47 81 1017.6
20260507003524 52 317 0.0 0.0 0.00 0.47 0.47 78 1017.8
20260507003020 52 317 0.0 0.0 0.00 0.47 0.47 76 1017.5
20260507002516 52 317 0.0 0.0 0.00 0.47 0.47 75 1017.3
20260507002013 53 317 0.0 0.0 0.00 0.47 0.47 76 1017.4
20260507001509 53 317 0.0 0.0 0.00 0.47 0.47 75 1017.4
20260507001007 53 317 0.0 0.0 0.00 0.47 0.47 75 1017.1
20260507000502 53 317 0.0 0.0 0.00 0.47 0.47 73 1017.3
20260506235958 53 317 0.0 0.0 0.00 0.47 0.47 75 1017.1
20260506235456 53 317 0.0 0.0 0.00 0.47 0.47 77 1017.5
20260506234951 53 317 0.0 0.0 0.00 0.47 0.47 77 1017.2
20260506234449 54 317 0.0 0.0 0.00 0.47 0.47 77 1017.5
20260506233946 55 317 0.0 0.0 0.00 0.47 0.47 73 1017.3
20260506233443 55 317 0.0 0.0 0.00 0.47 0.47 69 1017.1
20260506232939 55 317 0.0 0.0 0.00 0.47 0.47 70 1017.2
20260506232436 56 317 0.0 0.0 0.00 0.47 0.47 67 1017.0
20260506231931 56 315 0.0 0.0 0.00 0.47 0.47 64 1017.2
20260506231429 56 318 0.0 0.0 0.00 0.47 0.47 64 1017.3
20260506230926 57 317 0.0 0.0 0.00 0.47 0.47 63 1017.4
20260506230422 57 317 0.0 0.0 0.00 0.47 0.47 65 1017.2
20260506225919 57 317 0.0 0.9 0.00 0.47 0.47 64 1017.3
20260506225417 57 291 0.9 0.9 0.00 0.47 0.47 62 1017.2
20260506224913 57 324 0.9 1.7 0.00 0.47 0.47 62 1017.5
20260506224411 57 296 0.9 0.9 0.00 0.47 0.47 61 1017.5
20260506223907 57 293 0.0 0.0 0.00 0.47 0.47 64 1017.7
20260506223402 56 289 0.0 0.9 0.00 0.47 0.47 61 1017.7
20260506222900 56 293 0.0 0.0 0.00 0.47 0.47 61 1017.7
20260506222355 56 303 0.0 0.9 0.00 0.47 0.47 62 1017.4
20260506221853 56 306 0.0 0.0 0.00 0.47 0.47 62 1017.6
20260506221350 56 306 0.0 0.9 0.00 0.47 0.47 61 1017.5
20260506220848 56 286 0.9 0.9 0.00 0.47 0.47 62 1017.7
20260506220343 56 311 0.9 0.9 0.00 0.47 0.47 64 1017.7
20260506215840 57 306 0.0 0.0 0.00 0.47 0.47 63 1017.7
20260506215336 56 309 0.0 0.0 0.00 0.47 0.47 62 1017.8
20260506214832 56 259 1.7 1.7 0.00 0.47 0.47 61 1017.7
20260506214329 57 317 0.9 0.9 0.00 0.47 0.47 60 1017.7
20260506213828 57 288 0.0 0.9 0.00 0.47 0.47 62 1017.5
20260506213324 57 293 0.9 0.9 0.00 0.47 0.47 60 1017.4
20260506212822 57 290 0.0 0.0 0.00 0.47 0.47 61 1017.6
20260506212317 57 290 0.9 0.9 0.00 0.47 0.47 61 1017.4
20260506211812 57 286 0.9 0.9 0.00 0.47 0.47 61 1017.4
20260506211309 57 318 0.0 0.0 0.00 0.47 0.47 61 1017.3
20260506210806 57 309 0.0 0.0 0.00 0.47 0.47 62 1017.2
20260506210257 57 319 0.0 0.0 0.00 0.47 0.47 61 1017.1
20260506205754 57 315 0.0 0.0 0.00 0.47 0.47 63 1017.0
20260506205250 57 332 0.0 0.9 0.00 0.47 0.47 61 1017.2
20260506204747 56 316 0.0 0.0 0.00 0.47 0.47 61 1016.9
20260506204245 56 290 0.0 0.0 0.00 0.47 0.47 62 1017.1
20260506203742 56 293 0.0 0.9 0.00 0.47 0.47 61 1017.3
20260506203239 57 292 0.9 0.9 0.00 0.47 0.47 65 1017.1
20260506202736 56 294 0.0 0.0 0.00 0.47 0.47 62 1017.3
20260506202233 56 288 0.9 0.9 0.00 0.47 0.47 60 1017.1
20260506201730 56 293 0.0 0.0 0.00 0.47 0.47 61 1017.1
20260506201227 56 295 0.0 0.9 0.00 0.47 0.47 62 1017.3
20260506200723 57 329 0.0 0.0 0.00 0.47 0.47 63 1017.2
20260506200220 57 289 0.9 0.9 0.00 0.47 0.47 60 1017.3
20260506195716 57 266 1.7 1.7 0.00 0.47 0.47 62 1017.1
20260506195213 57 281 1.7 1.7 0.00 0.47 0.47 64 1017.1
20260506194710 57 332 0.9 1.7 0.00 0.47 0.47 62 1017.2
20260506194206 58 288 0.0 0.9 0.00 0.47 0.47 61 1016.9
20260506193659 57 281 0.9 0.9 0.00 0.47 0.47 61 1016.8
20260506193155 58 322 0.0 0.0 0.00 0.47 0.47 60 1016.9
20260506192652 58 318 0.0 0.0 0.00 0.47 0.47 59 1016.9
20260506192148 57 291 0.0 0.0 0.00 0.47 0.47 61 1016.8
20260506191646 57 268 1.7 1.7 0.00 0.47 0.47 60 1017.0
20260506191141 57 291 0.9 0.9 0.00 0.47 0.47 60 1017.2
20260506190639 57 320 0.9 1.7 0.00 0.47 0.47 60 1017.1
20260506190135 57 22 0.9 1.7 0.00 0.47 0.47 63 1017.0
20260506185633 57 275 0.9 1.7 0.00 0.47 0.47 61 1017.0
20260506185129 57 293 0.9 0.9 0.00 0.47 0.47 60 1017.1
20260506184626 57 254 4.3 5.2 0.00 0.47 0.47 59 1016.8
20260506184123 58 308 0.0 0.0 0.00 0.47 0.47 60 1017.1
20260506183620 58 354 1.7 1.7 0.00 0.47 0.47 60 1017.0
20260506183116 59 296 0.9 0.9 0.00 0.47 0.47 61 1016.7
20260506182614 59 285 0.0 0.0 0.00 0.47 0.47 59 1016.8
20260506182111 59 256 0.9 1.7 0.00 0.47 0.47 58 1016.7
20260506181609 59 307 0.9 0.9 0.00 0.47 0.47 58 1016.8
20260506181105 58 27 1.7 1.7 0.00 0.47 0.47 59 1016.7
20260506180602 58 279 1.7 1.7 0.00 0.47 0.47 60 1016.9
20260506180059 58 271 1.7 2.6 0.00 0.47 0.47 61 1016.8
20260506175555 57 323 0.0 0.0 0.00 0.47 0.47 62 1017.1
20260506175051 57 298 0.9 0.9 0.00 0.47 0.47 64 1017.2
20260506174550 58 273 2.6 2.6 0.00 0.47 0.47 62 1017.1
20260506174045 58 268 1.7 2.6 0.00 0.47 0.47 62 1017.1
20260506173544 58 317 0.9 0.9 0.00 0.47 0.47 63 1017.0
20260506173040 58 312 0.9 1.7 0.00 0.47 0.47 62 1017.0
20260506172538 57 312 0.0 0.0 0.00 0.47 0.47 63 1017.2
20260506172034 57 292 0.0 0.0 0.00 0.47 0.47 66 1017.3
20260506171531 57 260 1.7 1.7 0.00 0.47 0.47 63 1017.2
20260506171029 57 313 0.9 0.9 0.00 0.47 0.47 62 1017.4
20260506170526 58 242 2.6 4.3 0.00 0.47 0.47 62 1017.1
20260506170023 58 242 1.7 1.7 0.00 0.47 0.47 62 1017.2
20260506165521 58 328 0.0 0.0 0.00 0.47 0.47 65 1017.3
20260506165012 58 309 0.0 0.0 0.00 0.47 0.47 64 1017.3
20260506164509 57 253 1.7 1.7 0.00 0.47 0.47 61 1017.3
20260506164007 57 295 0.9 0.9 0.00 0.47 0.47 64 1017.4
20260506163502 56 286 0.0 0.9 0.00 0.47 0.47 68 1017.0
20260506162956 55 269 0.9 0.9 0.00 0.47 0.47 66 1017.1
20260506162454 55 337 1.7 1.7 0.00 0.47 0.47 68 1017.2
20260506161945 55 324 0.9 1.7 0.00 0.47 0.47 69 1017.0
20260506161443 56 273 1.7 1.7 0.00 0.47 0.47 68 1017.3
20260506160941 57 295 0.9 0.9 0.00 0.47 0.47 66 1016.9
20260506160438 56 261 1.7 1.7 0.00 0.47 0.47 66 1017.5
20260506155935 56 356 0.9 0.9 0.00 0.47 0.47 67 1017.2
20260506155433 57 5 0.9 1.7 0.00 0.47 0.47 66 1017.0
20260506153559 56 267 0.9 0.9 0.00 0.47 0.47 68 1017.2
20260506153057 56 291 0.0 0.0 0.00 0.47 0.47 70 1017.4
20260506152553 55 342 0.0 0.0 0.00 0.47 0.47 69 1017.1
20260506152052 54 309 0.0 0.9 0.00 0.47 0.47 72 1017.3
20260506151549 54 272 2.6 2.6 0.00 0.47 0.47 71 1017.0
20260506151046 53 295 1.7 1.7 0.00 0.47 0.47 70 1016.5
20260506150542 54 313 0.9 0.9 0.00 0.47 0.47 71 1016.6
20260506150040 54 286 0.0 0.0 0.00 0.47 0.47 73 1016.4
20260506145536 54 13 0.9 0.9 0.00 0.47 0.47 74 1016.4
20260506145034 54 283 0.9 1.7 0.00 0.47 0.47 73 1016.5
20260506144530 54 318 0.0 0.9 0.00 0.47 0.47 75 1016.2
20260506144028 53 346 0.0 0.0 0.00 0.47 0.47 77 1016.1
20260506143525 52 351 0.0 0.9 0.00 0.47 0.47 80 1016.1
20260506143024 51 329 0.0 0.0 0.00 0.47 0.47 80 1016.2
20260506142521 51 291 0.9 0.9 0.00 0.47 0.47 83 1016.2
20260506142019 50 316 0.9 0.9 0.00 0.47 0.47 84 1016.2
20260506141517 50 286 0.9 0.9 0.00 0.47 0.47 83 1016.0
20260506141015 49 316 0.0 0.9 0.00 0.47 0.47 85 1016.1
20260506140512 49 324 0.9 0.9 0.00 0.47 0.47 87 1016.0
20260506140009 48 303 0.0 0.9 0.00 0.47 0.47 91 1016.0
20260506135506 48 292 0.9 0.9 0.00 0.47 0.47 93 1016.4
20260506135002 47 304 0.0 0.9 0.00 0.47 0.47 95 1016.3
20260506134458 47 310 0.0 0.0 0.00 0.47 0.47 98 1016.1
20260506133954 47 321 0.0 0.0 0.00 0.47 0.47 99 1016.0
20260506133452 46 324 0.0 0.0 0.00 0.47 0.47 99 1015.9
20260506132948 46 316 0.0 0.0 0.00 0.47 0.47 99 1015.9
20260506132445 46 344 0.9 0.9 0.00 0.47 0.47 99 1015.8
20260506131943 46 293 0.0 0.9 0.00 0.47 0.47 99 1015.9
20260506131439 46 293 0.0 0.9 0.00 0.47 0.47 99 1015.4
20260506130936 45 321 0.0 0.0 0.00 0.47 0.47 99 1015.4
20260506130433 46 306 0.0 0.0 0.00 0.47 0.47 99 1015.7
20260506125931 45 308 0.0 0.0 0.00 0.47 0.47 99 1015.9
20260506125429 45 311 0.0 0.0 0.00 0.47 0.47 99 1015.5
20260506124927 45 310 0.0 0.0 0.00 0.47 0.47 99 1015.3
20260506124424 45 319 0.0 0.0 0.00 0.47 0.47 99 1015.3
20260506123922 45 313 0.0 0.0 0.00 0.47 0.47 99 1015.3
20260506123420 45 310 0.0 0.0 0.00 0.47 0.47 99 1015.2
20260506122917 45 309 0.0 0.0 0.00 0.47 0.47 99 1015.1
20260506122414 45 319 0.0 0.0 0.00 0.47 0.47 99 1015.1
20260506121912 45 325 0.0 0.0 0.00 0.47 0.47 99 1015.3
20260506121408 45 317 0.0 0.0 0.00 0.47 0.47 99 1015.1
20260506120905 44 314 0.0 0.0 0.00 0.47 0.47 99 1015.0
20260506120403 44 311 0.0 0.0 0.00 0.47 0.47 99 1014.8
20260506115900 44 317 0.0 0.0 0.00 0.47 0.47 99 1015.1
20260506115358 44 310 0.0 0.0 0.00 0.47 0.47 99 1014.5
20260506114856 44 315 0.0 0.0 0.00 0.47 0.47 99 1014.6
20260506114353 44 308 0.0 0.0 0.00 0.47 0.47 99 1014.6
20260506113853 44 314 0.0 0.0 0.00 0.47 0.47 99 1014.3
20260506113349 44 314 0.0 0.0 0.00 0.47 0.47 99 1013.8
20260506112846 44 306 0.0 0.0 0.00 0.47 0.47 99 1013.6
20260506112343 43 309 0.0 0.0 0.00 0.47 0.47 99 1013.6
20260506111840 43 317 0.0 0.0 0.00 0.47 0.47 99 1014.1
20260506111338 43 320 0.0 0.0 0.00 0.47 0.47 99 1013.8
20260506110836 43 324 0.0 0.0 0.00 0.47 0.47 99 1014.1
20260506110333 43 317 0.0 0.0 0.00 0.47 0.47 99 1014.0
20260506105830 43 309 0.0 0.0 0.00 0.47 0.47 99 1014.4
20260506105326 43 321 0.0 0.9 0.00 0.47 0.47 99 1014.0
20260506104823 43 309 0.0 0.0 0.00 0.47 0.47 99 1013.7
20260506104321 43 303 0.0 0.0 0.00 0.47 0.47 99 1013.6
20260506103818 43 300 0.0 0.0 0.00 0.47 0.47 99 1013.7
20260506103316 43 299 0.0 0.0 0.00 0.47 0.47 99 1013.1
20260506102813 43 298 0.0 0.0 0.00 0.47 0.47 99 1013.0
20260506102311 43 293 0.9 0.9 0.00 0.47 0.47 99 1012.9
20260506101808 44 311 0.0 0.0 0.00 0.47 0.47 99 1012.9
20260506101304 44 327 0.0 0.0 0.00 0.47 0.47 99 1012.9
20260506100802 44 309 0.0 0.0 0.00 0.47 0.47 99 1013.1
20260506100300 44 315 0.0 0.0 0.00 0.47 0.47 99 1013.2
20260506095758 44 316 0.0 0.0 0.00 0.47 0.47 99 1013.4
20260506095255 44 307 0.0 0.0 0.00 0.47 0.47 99 1013.4
20260506094751 44 309 0.0 0.0 0.00 0.47 0.47 99 1013.0
20260506094250 44 307 0.0 0.0 0.00 0.47 0.47 99 1012.8
20260506093748 44 318 0.0 0.0 0.00 0.47 0.47 99 1012.6
20260506093245 44 308 0.0 0.0 0.00 0.47 0.47 99 1012.6
20260506092743 44 319 0.0 0.0 0.00 0.47 0.47 99 1012.5
20260506092241 44 316 0.0 0.0 0.00 0.47 0.47 99 1012.2
20260506091737 44 320 0.0 0.0 0.00 0.47 0.47 99 1012.3
20260506091235 44 331 0.0 0.0 0.00 0.47 0.47 99 1011.9
20260506090733 44 332 0.0 0.0 0.00 0.47 0.47 99 1012.0
20260506090229 44 331 0.0 0.9 0.00 0.47 0.47 99 1012.2
20260506085726 44 320 0.0 0.0 0.00 0.47 0.47 99 1012.4
20260506085222 44 312 0.0 0.0 0.00 0.47 0.47 99 1012.5
20260506084719 44 302 0.0 0.0 0.00 0.47 0.47 99 1012.3
20260506084215 44 317 0.0 0.0 0.00 0.47 0.47 99 1012.2
20260506083713 44 328 0.0 0.0 0.00 0.47 0.47 99 1012.3
20260506083210 44 324 0.0 0.0 0.05 0.47 0.47 99 1012.1
20260506082707 44 306 0.0 0.0 0.05 0.47 0.47 99 1012.2
20260506082203 44 323 0.0 0.0 0.05 0.47 0.47 99 1012.4
20260506081701 44 318 0.0 0.0 0.07 0.46 0.46 99 1012.2
20260506081158 44 320 0.0 0.0 0.07 0.46 0.46 99 1012.0
20260506080656 44 333 0.0 0.0 0.12 0.46 0.46 99 1012.2
20260506080152 44 273 0.9 0.9 0.12 0.45 0.45 99 1012.1
20260506073136 45 294 0.0 0.0 0.12 0.41 0.41 99 1012.2
20260506072633 45 279 0.0 0.9 0.07 0.40 0.40 99 1012.2
20260506072131 45 316 0.0 0.0 0.00 0.39 0.39 99 1012.2
20260506071628 45 332 0.0 0.0 0.05 0.39 0.39 99 1012.2
20260506071126 45 300 0.0 0.0 0.05 0.39 0.39 99 1012.4
20260506070622 45 276 0.0 0.0 0.00 0.38 0.38 99 1012.1
20260506070119 45 282 0.0 0.0 0.00 0.38 0.38 99 1012.1
20260506062057 47 325 0.0 0.9 0.12 0.35 0.35 99 1011.6
20260506061552 47 357 0.0 0.0 0.12 0.34 0.34 99 1011.5
20260506061050 47 328 0.0 0.0 0.12 0.33 0.33 99 1011.9
20260506060549 47 317 0.0 0.0 0.05 0.32 0.32 99 1011.5
20260506051017 48 303 0.0 0.0 0.19 0.22 0.22 99 1012.5
20260506050515 48 291 0.0 0.0 0.12 0.20 0.20 99 1012.1
20260506045005 48 338 0.0 0.0 0.19 0.18 0.18 99 1011.5
20260506044504 48 295 0.0 0.0 0.17 0.17 0.17 99 1011.4
20260506044000 48 334 0.0 0.9 0.05 0.15 0.15 99 1011.5
20260506043457 48 332 0.0 0.0 0.07 0.14 0.14 99 1011.8
20260506042955 49 300 0.0 0.9 0.19 0.14 0.14 99 1011.9
20260506042454 49 333 0.0 0.0 0.17 0.13 0.13 99 1011.6
20260506041952 50 294 1.7 1.7 0.31 0.12 0.12 99 1011.8
20260506041450 50 282 0.9 0.9 0.50 0.10 0.10 99 1011.4
20260506040947 50 308 0.0 0.0 0.47 0.06 0.06 99 1011.5
20260506040444 50 331 0.0 0.0 0.31 0.02 0.02 99 1011.5
20260506035940 50 303 0.9 0.9 0.14 0.65 0.65 99 1011.6
20260506035437 50 330 0.0 0.9 0.05 0.63 0.63 99 1011.2
20260506034934 50 316 0.0 0.0 0.05 0.63 0.63 99 1011.4
20260506034431 50 312 0.0 0.0 0.00 0.62 0.62 99 1011.1
20260506033928 50 307 0.0 0.0 0.00 0.62 0.62 99 1011.2
20260506033426 50 318 0.0 0.0 0.00 0.62 0.62 99 1011.2
20260506032922 50 42 0.9 1.7 0.00 0.62 0.62 99 1011.1